Temperature
20 20 20 20 20 20 20 19 19 19 18 18 18 17 17 16 16 16 16 15 15 15 15 15 15 14 14 14 14 14 14 15 15 15 15 15 15 15 16 15 16 16 16
20 20 20 20 20 20 19 19 19 19 18 18 18 17 17 16 16 16 16 15 15 15 15 15 15 14 14 14 14 14 14 14 15 15 15 15 15 15 15 15 15 16 16
20 20 20 20 20 19 19 19 19 19 18 18 17 17 17 16 16 16 16 15 15 15 15 15 15 15 14 14 14 14 14 14 14 14 14 14 14 15 15 15 15 15 16
19 19 19 19 19 19 19 19 19 18 18 18 17 17 17 16 16 16 16 15 15 15 15 15 15 15 14 14 14 14 14 14 14 14 14 14 14 14 14 15 15 15 15
19 19 19 19 19 19 19 18 18 18 18 17 17 17 17 16 16 16 16 15 15 15 15 15 15 15 14 14 14 14 14 14 14 14 14 14 14 14 14 14 15 15 15
19 19 19 19 19 18 18 18 18 18 17 17 17 17 16 16 16 16 15 15 15 15 15 15 15 15 14 14 14 14 14 14 14 14 14 14 14 14 14 14 14 15 15
18 18 18 18 18 18 18 18 18 18 17 17 17 16 16 16 16 15 15 15 15 15 15 15 15 15 14 14 14 14 14 14 14 14 14 14 14 14 14 14 14 14 15
18 18 18 18 18 18 18 17 17 17 17 17 17 16 16 16 16 15 15 15 15 15 15 15 15 15 14 14 14 14 14 14 14 14 14 14 14 14 14 14 14 14 14
18 18 18 18 17 17 17 17 17 17 16 16 16 16 16 15 15 15 15 15 15 15 15 15 15 14 14 14 14 14 14 14 14 14 14 14 14 14 14 14 14 14 14
18 17 17 17 17 17 17 17 16 16 16 16 16 16 15 15 15 15 15 15 14 14 14 14 14 14 14 14 14 14 14 14 14 14 14 14 14 14 14 14 14 14 14
17 17 17 17 17 17 17 16 16 16 16 16 15 15 15 15 15 15 15 14 14 14 14 14 14 14 14 14 14 14 14 14 14 14 14 14 14 14 14 14 14 14 14
17 17 17 17 17 16 16 16 16 16 15 15 15 15 15 15 15 14 14 14 14 14 14 14 14 14 14 14 13 13 13 13 13 13 13 13 13 13 13 14 14 14 13
17 17 17 17 16 16 16 16 16 15 15 15 15 15 15 14 14 14 14 14 14 14 14 13 13 13 13 13 13 13 13 13 13 13 13 13 13 13 13 13 13 13 13
17 17 16 16 16 16 16 16 15 15 15 15 15 14 14 14 14 14 14 14 13 13 13 13 13 13 13 13 13 13 13 13 13 13 13 13 13 13 13 13 13 13 13
16 16 16 16 16 16 15 15 15 15 15 14 14 14 14 14 14 13 13 13 13 13 13 12 12 12 12 12 12 12 12 12 12 12 12 12 12 12 12 12 13 13 13
16 16 16 16 16 15 15 15 15 15 14 14 14 14 14 13 13 13 13 13 13 12 12 12 12 12 12 12 12 12 12 12 12 12 12 12 12 12 12 12 12 12 12
16 16 16 16 16 15 15 15 15 14 14 14 14 13 13 13 13 13 13 13 12 12 12 12 12 12 12 12 11 11 11 11 11 12 12 12 12 12 12 12 12 12 12
16 16 16 16 15 15 15 15 14 14 14 14 13 13 13 13 12 12 12 12 12 12 12 12 12 11 11 11 11 11 11 11 11 11 11 11 11 11 11 11 11 12 12
17 16 16 16 15 15 15 14 14 14 13 13 13 13 13 12 12 12 12 12 12 12 12 11 11 11 11 11 11 10 11 11 11 11 11 11 11 11 11 11 11 11 11
17 16 16 15 15 15 14 14 14 13 13 13 13 13 12 12 12 12 12 11 11 11 11 11 11 11 10 10 10 10 10 10 10 10 10 10 10 10 10 10 10 11 11
16 16 15 15 15 14 14 14 13 13 13 12 12 12 12 12 12 11 11 11 11 11 11 10 10 10 10 10 10 10 10 10 10 10 10 10 10 10 10 10 10 10 10
16 15 15 15 14 14 13 13 13 13 12 12 12 12 12 11 11 11 11 11 10 10 10 10 10 10 10 9 9 9 9 9 9 9 9 9 9 9 9 9 10 10 10
15 15 15 14 14 13 13 13 12 12 12 12 11 11 11 11 11 10 10 10 10 10 10 9 9 9 9 9 9 9 9 9 9 9 9 9 9 9 9 9 9 9 9
15 15 14 14 13 13 12 12 12 12 11 11 11 11 11 11 10 10 10 10 10 9 9 9 9 9 8 8 8 8 8 8 8 8 8 8 8 8 9 9 9 9 9
15 14 14 13 13 12 12 12 11 11 11 11 10 10 10 10 10 10 9 9 9 9 8 8 8 8 8 8 8 8 8 8 8 7 8 8 8 8 8 8 8 8 8
14 14 13 13 12 12 12 11 11 11 10 10 10 10 10 9 9 9 9 9 9 8 8 8 8 7 7 7 7 7 7 7 7 7 7 7 7 7 7 7 8 8 8
Wind_Speed
2 4 5 5 5 5 5 5 5 4 4 3 2 2 1 0 1 1 1 2 2 3 3 2 3 3 3 3 4 3 4 4 3 3 4 4 4 4 3 2 2 2 1
4 5 5 5 5 4 4 3 4 3 3 2 2 2 2 0 0 1 1 1 1 2 2 2 2 2 2 4 4 3 3 3 3 2 2 4 5 4 4 3 2 2 1
4 4 5 4 5 4 3 4 3 4 3 3 2 3 3 3 3 2 2 2 1 1 2 1 1 1 1 2 3 2 2 2 3 2 2 2 1 3 4 4 3 3 2
4 4 5 5 4 3 4 4 4 4 3 4 4 3 2 1 2 2 2 2 2 2 2 1 0 1 1 1 2 1 1 1 2 2 1 1 3 1 3 4 3 3 2
4 4 4 4 4 4 5 5 6 5 4 5 4 4 2 1 1 1 2 2 3 3 2 1 1 1 1 1 2 2 1 1 1 0 1 1 1 1 1 2 4 3 3
4 4 4 5 5 5 6 6 6 5 4 5 5 4 3 2 2 3 3 2 3 3 3 2 1 1 1 1 1 1 1 0 0 0 0 1 0 1 1 2 2 2 3
5 5 5 5 4 5 5 5 6 5 4 5 4 3 3 3 2 2 2 2 2 3 4 2 2 2 2 2 1 1 1 1 0 1 1 1 2 2 2 2 1 1 2
4 5 4 4 4 4 5 5 5 4 3 4 3 3 3 3 2 2 2 1 1 2 3 3 3 3 3 2 1 1 2 1 1 1 1 1 2 1 2 2 2 1 2
5 5 4 4 4 4 4 4 4 4 2 2 3 3 3 3 2 2 2 2 2 3 4 3 3 3 3 2 2 2 2 2 1 2 2 1 2 2 1 2 3 3 1
5 4 4 3 3 3 3 4 4 3 2 2 2 3 2 2 2 3 3 3 4 4 5 5 4 4 3 3 2 2 2 2 3 2 2 2 2 2 1 1 2 3 4
6 4 3 2 3 3 3 3 3 3 3 2 3 3 2 2 3 3 3 3 4 5 5 5 4 4 4 3 2 2 2 2 3 3 3 4 3 2 2 1 1 2 3
6 5 4 3 3 2 2 2 2 2 1 1 2 2 2 2 2 2 3 3 4 4 4 4 4 5 4 3 2 3 3 2 3 4 3 4 3 3 2 2 2 2 3
6 4 3 3 3 2 2 2 1 1 1 1 2 1 1 1 1 2 3 3 3 4 4 4 5 5 5 4 3 3 3 3 3 4 3 4 3 4 3 3 3 3 3
6 5 3 2 2 2 2 2 1 1 1 2 2 1 1 1 1 2 3 3 3 3 4 4 4 4 5 4 4 4 4 4 4 4 4 4 4 4 4 3 3 3 3
6 5 4 3 2 2 1 1 0 0 1 2 1 1 1 1 2 3 3 3 3 4 3 3 4 4 4 4 5 4 5 4 5 5 5 5 6 6 4 4 4 3 3
7 6 4 3 3 2 2 1 1 0 2 2 0 1 1 1 2 3 3 3 3 3 3 3 4 5 6 8 8 6 4 4 5 6 6 6 6 7 7 7 6 5 5
8 7 5 4 3 3 3 2 1 1 2 1 0 1 1 2 3 3 3 3 3 3 4 4 4 5 7 10 10 9 4 4 4 5 5 6 6 6 4 6 6 6 7
9 7 6 4 3 2 2 2 2 3 2 1 1 1 1 2 3 3 4 4 3 3 4 5 5 5 7 11 11 10 4 4 5 5 5 5 6 6 5 5 5 5 6
8 7 6 5 4 3 3 4 3 3 3 2 2 2 1 2 3 4 5 4 4 4 4 4 5 5 8 11 11 9 4 4 6 6 5 5 6 9 8 4 5 7 7
8 7 6 5 5 3 4 5 3 2 1 1 2 2 2 2 3 4 4 4 3 4 4 5 5 5 6 10 12 9 3 5 6 6 6 8 8 10 10 5 5 8 8
8 8 7 6 4 4 4 4 2 0 2 2 1 2 2 3 3 3 3 4 4 4 4 5 6 6 7 10 12 10 4 4 5 6 6 6 12 12 11 9 7 10 9
7 8 7 5 3 4 5 3 1 2 2 1 1 2 3 3 3 3 4 4 4 4 5 5 6 5 6 8 10 12 10 9 6 7 7 8 13 13 12 9 10 13 9
8 6 7 5 3 3 4 4 3 2 1 1 2 3 3 3 3 3 4 4 3 3 4 4 5 6 6 7 13 13 13 12 7 7 12 13 14 13 10 11 13 10 6
7 6 7 5 4 3 3 4 3 2 1 1 3 3 3 4 4 3 3 3 4 4 5 5 6 6 6 6 6 6 7 8 8 7 10 14 13 9 9 9 8 6 6
6 6 7 6 5 4 4 4 3 2 1 2 3 3 3 4 4 4 4 4 5 5 6 5 5 6 7 9 12 10 7 6 7 8 5 5 5 5 6 5 6 6 5
7 6 6 6 5 5 4 4 3 3 2 2 3 3 3 3 3 4 6 7 7 10 11 10 10 8 11 14 15 15 15 15 13 9 6 6 7 7 7 7 6 6 6
Wind_Direction
127 106 119 125 119 122 133 142 143 149 128 103 110 107 103 348 1 331 54 58 48 46 46 25 13 19 25 2 360 5 4 357 360 24 1 354 3 16 2 353 2 2 12
77 86 92 99 104 112 121 130 145 147 138 134 145 148 142 171 259 318 350 347 22 32 43 39 13 11 22 7 4 17 12 358 20 51 41 4 354 353 358 355 359 354 14
115 106 103 97 98 103 120 131 131 132 129 116 91 72 54 30 13 356 335 316 318 357 28 41 32 16 47 360 345 9 43 5 355 45 104 90 315 321 336 346 352 357 6
109 109 107 100 100 96 96 94 101 105 105 97 94 109 112 117 269 275 300 311 321 336 5 23 47 10 19 349 328 18 51 78 357 349 24 169 184 183 332 331 339 344 345
128 124 120 118 103 94 90 90 90 81 83 90 96 103 102 160 305 345 4 341 330 335 340 345 5 329 326 323 336 351 15 108 140 333 334 17 40 144 165 302 327 339 329
112 113 102 94 83 82 86 87 85 73 73 79 79 97 100 80 48 17 12 348 333 328 328 329 329 308 301 301 300 317 325 290 185 221 162 160 190 239 189 231 285 304 308
114 109 97 90 86 84 84 83 82 69 64 73 69 81 95 91 73 34 21 8 343 322 314 324 301 292 287 295 307 336 315 290 265 252 247 227 224 212 185 188 248 295 310
116 117 119 115 109 101 94 88 85 75 66 69 63 72 86 79 60 44 35 15 325 302 314 321 309 308 314 317 318 309 293 295 269 281 268 265 270 236 198 186 182 305 330
128 124 119 119 120 113 106 106 98 78 68 73 68 68 76 76 59 38 29 8 335 331 336 340 332 328 325 323 340 319 304 306 281 277 283 279 279 273 238 196 178 177 235
137 129 125 123 119 120 109 99 98 97 68 64 73 74 75 71 55 43 21 359 347 349 347 343 342 337 331 324 344 331 318 328 302 285 293 287 279 284 274 226 199 184 188
152 144 139 138 124 107 104 104 95 82 70 71 78 72 63 71 64 46 15 355 351 352 348 341 342 343 338 330 331 318 331 334 322 317 302 285 281 281 281 257 222 205 185
155 148 139 129 121 120 116 115 107 102 110 98 86 83 60 64 53 13 349 346 349 349 345 349 353 347 340 334 334 321 320 312 309 301 301 296 300 284 271 256 251 237 214
140 133 127 131 139 148 143 138 138 157 159 109 84 69 48 38 5 328 332 340 347 353 355 359 349 339 337 332 318 310 305 297 291 289 283 281 288 287 274 260 255 252 239
141 138 143 155 156 156 158 160 186 188 135 112 103 84 289 281 292 305 318 324 331 341 343 342 336 334 330 331 332 325 314 305 298 286 274 275 261 256 265 264 259 252 240
150 151 155 160 149 138 150 153 181 159 115 108 103 262 284 311 328 328 315 314 320 327 325 335 333 328 326 328 329 322 323 317 309 301 286 278 276 269 261 261 248 235 230
163 160 153 142 144 154 154 129 108 102 108 111 179 288 354 360 334 317 315 315 313 315 323 322 318 320 327 327 323 327 320 319 313 307 300 291 284 288 288 280 265 234 222
165 164 162 164 166 173 159 138 129 95 97 94 359 336 343 333 312 319 330 313 304 307 310 307 308 305 304 318 325 325 327 310 303 298 298 304 306 303 291 293 291 267 247
167 166 164 160 158 147 129 110 83 75 75 51 345 323 327 316 319 326 316 304 299 295 291 294 297 299 306 318 320 320 320 304 297 290 279 280 289 296 293 287 288 278 269
167 165 163 153 139 129 122 102 78 67 59 33 350 321 320 325 325 316 305 299 300 297 289 291 294 296 302 312 315 316 300 296 299 290 282 278 277 289 292 278 273 280 282
155 153 145 129 128 134 117 100 89 70 25 296 301 311 312 318 309 297 296 297 295 288 296 301 298 293 293 308 316 315 293 295 301 298 286 283 283 292 289 267 260 264 269
149 144 138 137 151 149 123 113 103 271 265 269 303 326 318 306 293 294 300 303 304 308 307 303 301 298 295 305 311 311 300 285 293 297 294 288 293 293 291 280 257 260 266
143 143 141 146 157 148 133 133 199 256 267 291 319 315 310 315 327 316 312 314 313 311 308 309 310 306 302 302 306 309 303 297 285 285 287 287 294 294 291 286 277 275 272
152 150 149 152 165 167 151 162 228 247 256 308 307 304 306 306 305 302 309 317 318 309 306 308 307 307 306 306 309 308 304 301 292 281 284 289 292 294 290 282 283 281 260
158 154 152 159 183 196 185 194 219 217 197 269 286 295 298 300 304 301 297 301 301 299 301 303 301 302 304 301 302 301 301 298 297 291 292 295 292 285 275 282 282 267 248
164 163 167 177 194 201 210 221 221 194 214 259 276 285 285 284 294 295 283 282 271 268 281 282 281 292 299 294 297 301 300 295 289 299 295 293 293 290 284 277 273 268 258
167 168 174 183 195 199 214 229 225 200 206 250 269 275 282 284 285 294 307 297 284 292 291 287 286 287 287 296 303 304 304 303 300 300 285 283 280 277 276 276 275 269 261
Height
1533 1534 1536 1537 1538 1539 1539 1539 1540 1540 1539 1539 1539 1539 1538 1538 1537 1536 1535 1533 1532 1531 1529 1528 1526 1525 1523 1521 1520 1519 1517 1516 1516 1515 1514 1514 1514 1514 1514 1515 1515 1515 1516
1533 1535 1536 1537 1538 1538 1539 1539 1540 1540 1539 1539 1539 1538 1538 1537 1537 1536 1535 1534 1533 1531 1530 1528 1527 1525 1524 1522 1521 1519 1518 1517 1516 1516 1515 1515 1516 1515 1514 1514 1515 1515 1515
1533 1535 1536 1537 1538 1538 1538 1539 1539 1539 1539 1539 1538 1538 1538 1538 1537 1536 1535 1534 1533 1532 1530 1529 1527 1526 1524 1523 1521 1520 1519 1518 1518 1517 1517 1516 1515 1515 1515 1514 1514 1515 1515
1534 1535 1536 1537 1537 1538 1538 1538 1539 1539 1538 1538 1538 1537 1537 1537 1536 1536 1535 1534 1533 1532 1531 1529 1528 1526 1525 1523 1522 1521 1520 1519 1518 1517 1517 1517 1516 1516 1515 1515 1515 1514 1515
1534 1535 1536 1537 1537 1538 1538 1538 1538 1538 1538 1538 1537 1537 1537 1536 1536 1536 1535 1534 1533 1532 1531 1529 1528 1526 1525 1524 1523 1521 1520 1519 1518 1518 1517 1517 1516 1516 1515 1514 1514 1514 1514
1535 1536 1536 1537 1537 1538 1538 1538 1538 1537 1537 1537 1537 1537 1536 1536 1535 1535 1534 1534 1533 1532 1531 1529 1528 1527 1526 1524 1523 1522 1520 1519 1518 1518 1517 1516 1516 1515 1515 1514 1513 1513 1513
1534 1535 1536 1536 1537 1537 1537 1537 1537 1537 1537 1537 1536 1536 1536 1536 1535 1534 1534 1533 1532 1531 1530 1529 1528 1527 1525 1524 1523 1522 1520 1519 1518 1517 1517 1516 1515 1515 1514 1514 1513 1512 1512
1534 1535 1536 1536 1537 1537 1537 1537 1537 1536 1536 1536 1536 1536 1536 1535 1535 1534 1533 1532 1532 1531 1530 1529 1527 1526 1525 1524 1522 1521 1520 1519 1518 1517 1516 1515 1514 1514 1513 1513 1513 1512 1511
1534 1535 1536 1536 1537 1537 1537 1537 1536 1536 1536 1536 1536 1535 1535 1535 1534 1534 1533 1532 1531 1530 1529 1528 1526 1525 1524 1523 1521 1520 1519 1518 1517 1516 1515 1514 1513 1513 1512 1512 1512 1512 1510
1534 1535 1536 1536 1537 1537 1537 1537 1536 1536 1536 1536 1535 1535 1535 1534 1534 1533 1532 1531 1530 1529 1528 1526 1525 1524 1523 1522 1520 1519 1518 1517 1516 1515 1514 1513 1512 1511 1511 1510 1510 1510 1510
1533 1534 1535 1536 1536 1537 1536 1536 1536 1536 1535 1535 1535 1534 1534 1534 1533 1532 1531 1530 1529 1528 1526 1525 1524 1522 1521 1520 1519 1517 1516 1515 1514 1513 1512 1511 1510 1509 1509 1508 1508 1508 1508
1532 1534 1535 1536 1536 1536 1536 1536 1535 1535 1535 1534 1534 1533 1533 1533 1532 1531 1530 1529 1528 1527 1525 1524 1522 1521 1519 1518 1516 1515 1514 1513 1512 1510 1509 1509 1508 1507 1506 1506 1505 1505 1505
1532 1533 1534 1535 1535 1535 1535 1535 1535 1534 1534 1534 1533 1533 1532 1531 1531 1530 1529 1528 1526 1525 1524 1522 1520 1519 1517 1516 1514 1513 1512 1510 1509 1508 1507 1506 1505 1504 1503 1503 1502 1502 1502
1531 1532 1533 1533 1534 1534 1534 1534 1534 1533 1533 1533 1532 1532 1531 1530 1529 1528 1527 1526 1525 1524 1522 1520 1519 1517 1515 1514 1512 1510 1509 1507 1506 1505 1504 1503 1502 1501 1500 1500 1499 1499 1498
1529 1530 1531 1532 1532 1532 1532 1532 1532 1532 1532 1531 1531 1530 1529 1529 1528 1526 1525 1524 1523 1522 1520 1518 1517 1515 1513 1511 1510 1508 1506 1504 1503 1502 1501 1500 1499 1498 1497 1496 1496 1495 1495
1527 1528 1529 1530 1530 1531 1531 1531 1531 1530 1530 1529 1529 1528 1527 1526 1525 1524 1523 1522 1521 1519 1518 1516 1514 1513 1511 1509 1507 1505 1503 1501 1499 1498 1497 1496 1495 1494 1493 1492 1491 1491 1491
1524 1526 1527 1528 1529 1529 1529 1529 1529 1529 1528 1528 1527 1526 1525 1524 1523 1522 1521 1520 1518 1517 1515 1514 1512 1510 1508 1506 1504 1502 1500 1498 1496 1494 1492 1491 1490 1489 1488 1487 1486 1486 1486
1522 1524 1525 1526 1527 1528 1528 1528 1528 1527 1526 1526 1525 1524 1523 1522 1521 1519 1518 1517 1516 1514 1512 1511 1509 1507 1505 1503 1501 1499 1496 1494 1492 1490 1489 1487 1485 1485 1483 1482 1481 1480 1480
1519 1522 1523 1525 1525 1526 1526 1526 1526 1525 1524 1523 1522 1521 1520 1519 1518 1516 1515 1514 1513 1511 1509 1508 1506 1503 1501 1499 1497 1495 1492 1489 1487 1486 1484 1483 1481 1480 1478 1477 1475 1474 1474
1518 1520 1522 1523 1524 1524 1524 1524 1524 1523 1522 1521 1520 1519 1518 1516 1515 1514 1512 1511 1509 1507 1506 1504 1502 1500 1498 1496 1493 1491 1488 1485 1482 1480 1479 1478 1476 1474 1473 1471 1470 1468 1467
1515 1518 1519 1521 1521 1522 1522 1522 1521 1521 1520 1519 1518 1517 1515 1514 1512 1511 1509 1507 1505 1504 1502 1500 1498 1495 1493 1491 1489 1486 1484 1481 1478 1475 1473 1472 1470 1468 1467 1465 1463 1462 1462
1513 1515 1517 1518 1519 1520 1520 1519 1519 1518 1518 1517 1515 1514 1513 1511 1509 1507 1506 1504 1502 1499 1497 1495 1492 1490 1488 1486 1483 1481 1479 1476 1473 1471 1468 1466 1464 1462 1461 1459 1457 1456 1456
1510 1513 1514 1516 1517 1517 1517 1517 1516 1516 1515 1514 1512 1511 1509 1508 1506 1504 1502 1500 1498 1495 1493 1490 1487 1485 1483 1481 1479 1476 1474 1471 1468 1465 1463 1460 1458 1455 1453 1452 1451 1450 1449
1508 1510 1511 1513 1514 1514 1514 1514 1514 1513 1512 1511 1509 1508 1506 1504 1503 1501 1498 1496 1493 1491 1488 1486 1483 1480 1477 1475 1473 1470 1467 1465 1462 1459 1456 1453 1451 1449 1447 1446 1444 1443 1442
1505 1507 1508 1509 1510 1511 1511 1511 1511 1510 1508 1507 1506 1504 1502 1500 1498 1497 1495 1492 1490 1488 1485 1482 1479 1475 1472 1470 1468 1465 1461 1459 1456 1452 1449 1446 1444 1442 1440 1438 1437 1436 1435
1502 1504 1505 1507 1507 1508 1508 1508 1507 1506 1505 1503 1502 1500 1498 1496 1494 1492 1490 1487 1485 1483 1480 1477 1475 1471 1468 1465 1462 1459 1456 1452 1449 1446 1442 1440 1438 1435 1433 1431 1429 1429 1428